This is the latest recevied weather packets stored in our database for station/object K8JMX-13. If no packets are shown the sender has not sent any weather packets the latest 10 day(s).
| Time | Temp. | Humidity | Pressure | Rain* | Wind** | Luminosity | Snow |
|---|---|---|---|---|---|---|---|
| 1777468230 | 12.22° C | 92% | 1009 hPa | 0 mm | - | 59 W/m² | - |
| 1777467927 | 12.22° C | 92% | 1009 hPa | 0 mm | - | 76 W/m² | - |
| 1777467623 | 12.22° C | 92% | 1009.3 hPa | 0 mm | - | 57 W/m² | - |
| 1777467318 | 12.22° C | 92% | 1009.2 hPa | 0 mm | - | 43 W/m² | - |
| 1777467014 | 12.22° C | 92% | 1009.3 hPa | 0 mm | - | 36 W/m² | - |
| 1777466712 | 12.22° C | 92% | 1009.4 hPa | 0 mm | - | 25 W/m² | - |
| 1777466409 | 12.22° C | 92% | 1009.2 hPa | 1.78 mm | - | 34 W/m² | - |
| 1777466105 | 12.22° C | 92% | 1009.3 hPa | 1.78 mm | - | 37 W/m² | - |
| 1777465802 | 12.22° C | 92% | 1009.5 hPa | 0 mm | - | 23 W/m² | - |
| 1777465497 | 12.22° C | 92% | 1009.5 hPa | 1.78 mm | - | 18 W/m² | - |
| 1777465196 | 12.22° C | 92% | 1009.5 hPa | 1.78 mm | - | 11 W/m² | - |
| 1777464892 | 12.22° C | 92% | 1009.5 hPa | 1.27 mm | - | 23 W/m² | - |
| 1777464587 | 12.22° C | 92% | 1009.8 hPa | 1.78 mm | - | 11 W/m² | - |
| 1777464284 | 12.22° C | 92% | 1009.6 hPa | 1.78 mm | - | 10 W/m² | - |
| 1777463979 | 12.22° C | 92% | 1009.5 hPa | 0 mm | - | 8 W/m² | - |
| 1777463674 | 12.22° C | 92% | 1009.4 hPa | 1.27 mm | - | 6 W/m² | - |
| 1777463369 | 12.22° C | 92% | 1009 hPa | 1.27 mm | - | 4 W/m² | - |
| 1777463066 | 12.22° C | 92% | 1009 hPa | 0 mm | - | 6 W/m² | - |
| 1777462761 | 12.22° C | 92% | 1009.1 hPa | 0 mm | - | 6 W/m² | - |
| 1777462457 | 12.22° C | 92% | 1008.8 hPa | 0 mm | - | 14 W/m² | - |
| 1777462154 | 12.22° C | 92% | 1008.6 hPa | 0 mm | - | 11 W/m² | - |
| 1777461850 | 12.22° C | 92% | 1008.5 hPa | 0 mm | - | 11 W/m² | - |
| 1777461546 | 12.22° C | 92% | 1008.9 hPa | 0 mm | - | 12 W/m² | - |
| 1777461242 | 12.22° C | 92% | 1008.8 hPa | 0 mm | - | 11 W/m² | - |
| 1777460937 | 12.22° C | 92% | 1008.5 hPa | 0 mm | - | 5 W/m² | - |
* Rain latest hour (hover to see other rain measurements)
** Current wind speed in m/s (hover to see current wind gust speed)